Location: Alfortville
(48.8058°N, 2.4204°E)
Time: 04:10:35
(UTC+00:00)

Cosmos 1980 Rocket - Pass Details

Date: 26 May 2022
Orbit: 827 x 851 km, 71.0° (Epoch: 06 July)

Event Time Altitude Azimuth Distance (km) Brightness Sun altitude
Rises 23:54:01 0° 286° (WNW) 3,398 5.5 -19.9°
Reaches altitude 10° 23:58:59 10° 324° (NW) 2,474 5.3 -19.9°
Maximum altitude 00:00:11 11° 336° (NNW) 2,432 5.5 -19.9°
Drops below altitude 10° 00:01:24 10° 349° (NNW) 2,479 5.7 -19.9°
Sets 00:06:25 0° 27° (NNE) 3,423 6.6 -19.8°
